Date,TemperatureHighF,TemperatureAvgF,TemperatureLowF,DewpointHighF,DewpointAvgF,DewpointLowF,HumidityHigh,HumidityAvg,HumidityLow,PressureMaxIn,PressureMinIn,WindSpeedMaxMPH,WindSpeedAvgMPH,GustSpeedMaxMPH,PrecipitationSumIn
2013-1-1,33.3,23.7,10.0,20.2,4.3,-8.2,74,45,27,29.85,29.59,9,2,16,0.00
2013-1-2,26.4,14.5,2.5,4.9,-6.5,-17.2,59,39,25,30.03,29.82,11,2,23,0.00
2013-1-3,25.3,10.2,-6.5,-1.5,-8.9,-20.1,53,42,26,30.07,29.91,5,1,11,0.00
2013-1-4,34.9,25.8,1.0,19.4,13.2,-10.9,75,59,47,29.90,29.70,8,1,14,0.00
2013-1-5,38.5,29.7,14.9,21.8,9.5,1.8,65,44,26,30.23,29.71,14,2,24,0.00
2013-1-6,39.0,27.8,13.1,23.8,16.4,2.3,71,62,51,30.18,29.60,8,1,11,0.00
2013-1-7,33.3,28.2,9.5,19.5,14.3,-0.5,73,57,45,30.31,29.90,7,1,10,0.00
2013-1-8,44.8,32.2,8.4,22.6,17.4,-1.3,77,55,36,30.32,30.14,13,2,13,0.00
2013-1-9,39.2,28.7,14.0,27.4,19.4,6.1,76,68,59,30.38,29.86,10,1,10,0.00
2013-1-10,45.7,40.0,25.7,28.9,22.5,15.6,72,50,41,30.48,29.88,31,7,31,0.00
2013-1-11,38.1,31.0,18.9,27.6,20.8,10.4,80,66,42,30.49,30.21,5,1,5,0.00
2013-1-12,43.2,38.7,33.1,38.0,34.0,27.6,87,83,81,30.21,30.06,6,0,6,0.01
2013-1-13,42.1,38.0,35.2,38.0,33.8,30.6,88,85,83,30.11,29.71,4,0,4,0.01
2013-1-14,61.3,45.7,33.3,49.8,35.5,22.5,88,69,47,30.17,29.80,11,2,11,0.01
2013-1-15,41.9,30.7,26.8,26.4,21.5,18.7,78,69,46,30.27,30.18,4,0,4,0.00
2013-1-16,32.2,30.3,27.5,25.8,24.0,17.6,81,77,59,30.22,29.73,5,0,5,0.00
2013-1-17,42.3,30.1,18.3,32.0,14.3,-9.4,82,54,25,30.08,29.72,17,3,17,0.33
2013-1-18,22.5,14.4,6.4,-8.0,-12.6,-19.1,46,29,22,30.37,30.05,17,3,17,0.00
2013-1-19,41.4,31.2,10.9,22.3,16.0,-4.9,69,54,41,30.30,29.81,9,1,9,0.00
2013-1-20,50.2,38.1,25.7,29.6,18.8,-2.2,78,48,27,29.80,29.40,30,7,30,0.01
2013-1-21,28.6,22.1,14.2,7.7,-4.4,-12.1,59,31,22,30.00,29.78,15,4,15,0.00
2013-1-22,23.5,16.9,8.4,5.2,-5.7,-17.7,55,36,25,29.99,29.71,8,2,13,0.00
2013-1-23,9.9,1.8,-6.9,-18.3,-24.4,-28.4,38,27,21,30.06,29.98,11,2,15,0.00
2013-1-24,18.5,3.8,-10.5,-13.8,-20.4,-27.4,48,31,22,30.10,29.91,11,2,16,0.00
2013-1-25,23.5,9.9,-5.4,-3.2,-11.9,-21.8,53,36,24,30.18,30.02,7,1,10,0.00
2013-1-26,24.3,18.2,10.0,-5.6,-10.4,-14.5,45,27,22,30.11,29.95,11,3,14,0.00
2013-1-27,33.8,20.9,7.9,0.9,-7.2,-13.9,45,28,23,30.39,29.50,9,2,15,0.00
2013-1-28,28.8,17.7,6.4,15.2,3.9,-8.1,74,56,22,30.38,30.02,4,0,6,0.00
2013-1-29,35.2,28.9,20.3,25.3,19.9,13.0,77,69,58,30.17,30.02,4,0,5,0.05
2013-1-30,42.1,38.4,32.2,38.2,34.7,26.1,88,86,78,30.09,29.38,2,0,3,0.11
2013-1-31,55.8,45.0,29.8,51.2,32.3,6.5,88,64,33,29.41,28.79,18,6,31,0.26
2013-2-1,31.5,25.3,16.7,12.3,0.0,-16.5,49,33,20,29.98,29.43,14,4,21,0.00
2013-2-2,27.7,21.1,9.5,7.9,-0.7,-6.9,59,39,24,30.15,29.98,7,1,11,0.00
2013-2-3,28.6,25.1,18.5,10.8,7.7,4.3,58,47,39,29.99,29.65,8,2,12,0.00
2013-2-4,30.9,23.8,16.0,11.3,0.6,-12.5,66,38,22,29.81,29.61,13,3,26,0.00
2013-2-5,30.6,19.3,7.0,2.4,-2.9,-13.3,55,38,22,30.26,29.81,5,1,10,0.47
2013-2-6,39.4,27.6,16.3,19.5,9.1,-9.8,63,46,26,30.22,29.87,8,2,14,0.00
2013-2-7,26.1,17.3,8.2,-6.6,-11.0,-15.6,43,27,22,30.52,30.23,7,1,11,0.00
2013-2-8,15.6,13.6,9.7,8.0,3.6,-15.7,71,65,24,30.51,29.83,13,4,21,0.00
2013-2-9,20.1,15.9,11.1,11.3,5.5,1.1,72,63,48,30.07,29.63,16,6,38,0.00
2013-2-10,42.8,25.3,4.3,8.4,0.9,-10.7,56,36,21,30.31,30.08,6,1,12,0.00
2013-2-11,33.3,23.4,5.5,28.1,15.5,-6.4,83,72,53,30.30,29.53,3,0,6,0.06
2013-2-12,47.8,37.2,26.1,32.7,25.8,20.5,84,65,44,29.74,29.48,9,2,17,0.14
2013-2-13,49.3,34.9,20.8,25.5,20.5,14.2,75,57,32,29.78,29.68,6,1,9,0.00
2013-2-14,46.4,36.0,26.2,22.6,17.9,14.0,69,49,28,29.94,29.66,8,1,14,0.00
2013-2-15,51.6,34.8,19.6,30.5,23.4,12.1,80,64,40,29.94,29.84,5,1,11,0.00
2013-2-16,41.2,34.9,28.2,32.3,24.2,2.1,80,65,32,29.90,29.73,8,2,14,0.01
2013-2-17,27.9,21.6,18.5,14.4,4.8,-8.6,75,50,29,29.71,29.18,15,5,33,0.00
2013-2-18,35.8,24.4,14.7,2.4,-5.4,-13.1,35,26,21,30.00,29.44,14,4,24,0.00
2013-2-19,43.2,33.7,14.2,38.7,13.7,-12.8,85,47,21,30.05,29.52,6,1,10,0.33
2013-2-20,40.1,33.5,26.8,36.2,19.7,10.6,86,58,43,29.60,29.39,10,3,23,0.04
2013-2-21,30.0,26.4,21.9,12.5,8.6,1.7,55,47,32,30.06,29.61,9,3,21,0.00
2013-2-22,46.4,33.7,21.0,19.5,16.5,11.8,67,50,29,30.36,30.11,8,1,12,0.00
2013-2-23,38.3,34.1,25.5,30.9,26.5,15.7,83,74,59,30.30,29.95,6,1,9,0.05
2013-2-24,33.6,31.4,29.1,29.0,26.7,24.6,84,82,80,29.94,29.72,1,0,4,0.02
2013-2-25,45.0,35.1,25.2,33.9,26.2,19.3,83,71,50,30.18,29.85,4,0,10,0.15
2013-2-26,46.8,37.2,30.0,29.7,26.3,23.4,84,66,45,30.31,30.20,6,1,8,0.00
2013-2-27,37.6,34.0,30.7,32.6,28.5,25.0,84,80,72,30.19,29.65,9,2,17,0.20
2013-2-28,40.3,36.1,32.4,36.0,31.7,28.0,87,84,82,29.60,29.49,6,1,10,0.53
2013-3-1,39.6,35.6,32.0,28.4,26.9,25.0,83,71,61,29.62,29.49,8,2,13,0.00
2013-3-2,48.9,37.2,31.1,30.4,27.2,25.4,83,68,45,29.61,29.55,8,2,14,0.05
2013-3-3,46.0,37.9,31.8,31.8,26.7,23.0,81,64,50,29.57,29.48,6,2,13,0.08
2013-3-4,41.0,34.2,32.4,25.9,21.7,18.6,68,60,54,29.65,29.46,9,3,18,0.01
2013-3-5,47.8,41.2,32.2,31.5,28.8,19.8,76,62,50,30.06,29.65,9,2,15,0.00
2013-3-6,40.6,36.5,32.2,29.1,25.3,22.0,78,64,54,30.19,30.06,13,4,30,0.00
2013-3-7,37.8,34.4,32.0,24.2,20.6,19.3,72,57,51,30.15,30.03,14,5,25,0.00
2013-3-8,49.8,40.2,29.1,24.3,17.7,13.2,79,42,26,30.16,29.97,11,5,20,0.01
2013-3-9,56.7,40.8,25.5,26.3,20.3,15.0,76,48,22,30.34,30.14,11,2,21,0.00
2013-3-10,46.6,28.5,21.2,27.9,19.6,14.6,77,70,47,30.39,30.25,4,0,6,0.00
2013-3-11,52.7,40.5,30.6,33.6,30.0,23.6,79,67,43,30.27,30.10,5,1,9,0.00
2013-3-12,48.9,44.8,36.3,44.1,39.8,29.8,86,83,75,30.10,29.67,8,2,19,0.46
2013-3-13,49.8,43.4,31.5,44.3,35.2,25.3,87,73,55,29.70,29.63,8,1,12,0.01
2013-3-14,42.8,32.4,22.8,25.5,16.9,0.7,79,54,35,29.71,29.56,10,2,19,0.00
2013-3-15,41.2,28.7,15.6,17.6,6.2,-2.0,66,40,24,29.75,29.54,10,2,16,0.00
2013-3-16,38.1,31.2,23.0,20.7,8.8,4.2,71,40,26,29.84,29.58,8,2,13,0.00
2013-3-17,34.9,26.6,16.2,11.9,1.3,-7.3,67,36,23,30.26,29.84,12,3,26,0.00
2013-3-18,40.5,26.7,9.1,16.5,3.8,-9.4,58,39,21,30.40,30.23,8,1,11,0.00
2013-3-19,32.7,29.0,23.7,27.7,23.4,16.7,84,79,59,30.22,29.64,12,3,18,0.00
2013-3-20,40.3,31.9,18.5,25.1,18.5,11.3,79,58,37,29.69,29.57,11,3,17,0.01
2013-3-21,46.6,34.4,17.4,18.6,14.1,7.3,68,45,25,29.72,29.56,8,2,10,0.00
2013-3-22,42.3,33.7,19.4,18.3,13.8,9.6,71,45,29,29.61,29.54,8,2,13,0.00
2013-3-23,43.5,36.5,21.6,21.2,17.5,9.2,61,46,31,29.63,29.47,14,4,22,0.00
2013-3-24,50.9,41.9,27.0,23.3,21.0,15.0,69,44,29,29.75,29.63,8,2,17,0.00
2013-3-25,45.0,36.8,24.1,30.2,24.5,16.2,74,61,49,29.73,29.54,8,2,11,0.00
2013-3-26,54.7,42.7,31.3,23.7,20.1,16.3,64,42,24,29.70,29.51,11,3,17,0.00
2013-3-27,53.2,35.6,24.4,33.0,24.9,15.4,81,66,32,29.83,29.66,7,1,11,0.07
2013-3-28,51.6,43.1,34.0,34.2,30.0,24.3,83,61,38,29.95,29.83,7,1,9,0.02
2013-3-29,56.5,45.8,31.8,34.4,28.9,23.9,75,53,34,29.98,29.65,8,2,11,0.00
2013-3-30,59.2,44.6,29.7,31.6,22.5,15.2,75,46,22,30.05,29.93,8,1,13,0.00
2013-3-31,53.8,43.4,23.7,34.5,24.9,15.3,75,51,23,30.07,29.83,11,2,21,0.00
2013-4-1,58.3,45.0,35.4,41.2,32.9,9.7,86,64,33,29.78,29.42,16,3,24,0.40
2013-4-2,40.3,34.1,24.8,12.1,7.1,2.5,54,32,24,29.79,29.65,16,4,24,0.00
2013-4-3,47.3,38.1,28.2,15.5,9.5,3.5,57,31,21,30.01,29.77,14,5,23,0.00
2013-4-4,55.8,41.9,25.5,24.5,14.6,5.4,65,35,21,30.17,29.93,11,3,17,0.00
2013-4-5,59.9,47.0,30.4,28.7,23.5,17.3,67,42,22,29.93,29.59,13,3,20,0.00
2013-4-6,44.4,36.2,26.1,17.5,7.4,-0.4,58,31,22,30.30,29.79,11,3,25,0.11
2013-4-7,50.9,41.2,23.4,35.6,26.6,9.1,68,56,35,30.29,29.81,10,2,16,0.00
2013-4-8,64.6,51.1,35.1,38.6,34.0,28.9,85,55,31,30.10,29.85,8,2,16,0.00
2013-4-9,52.9,44.9,38.3,42.2,38.8,31.1,86,79,65,30.07,29.84,6,1,11,0.43
2013-4-10,60.6,49.6,40.5,44.8,41.8,36.3,87,75,54,29.94,29.84,7,1,8,0.30
2013-4-11,54.1,47.5,42.4,41.1,26.4,14.0,86,49,23,30.12,29.82,9,2,15,0.05
2013-4-12,41.4,34.9,33.3,29.1,24.2,10.3,84,67,33,30.22,29.84,7,2,10,0.13
2013-4-13,48.2,40.7,33.4,36.0,32.8,29.1,85,74,58,29.88,29.75,6,1,8,0.28
2013-4-14,54.0,44.9,35.8,38.4,33.2,28.1,87,65,42,30.16,29.84,9,1,14,0.04
2013-4-15,59.2,46.0,28.4,37.8,32.8,22.7,83,62,37,30.38,30.15,7,2,12,0.01
2013-4-16,58.5,49.1,31.6,47.8,39.2,14.7,85,69,45,30.37,29.43,7,2,11,0.02
2013-4-17,65.1,55.0,40.1,48.6,30.4,24.6,75,41,24,30.36,29.96,9,2,15,0.01
2013-4-18,52.0,45.7,29.5,38.1,30.7,21.8,79,57,34,30.48,30.16,8,2,13,0.00
2013-4-19,75.2,61.2,47.8,57.8,51.0,38.2,81,70,54,30.14,29.65,10,2,14,0.00
2013-4-20,62.1,52.6,43.0,56.5,32.6,19.7,85,49,30,30.16,29.59,16,4,27,0.21
2013-4-21,54.0,43.3,30.7,23.7,18.6,15.2,64,39,22,30.70,30.18,11,2,20,0.01
2013-4-22,51.8,42.2,28.6,32.3,23.2,14.7,77,50,24,30.82,30.66,11,2,13,0.00
2013-4-23,43.7,39.4,30.2,38.0,33.1,24.9,86,78,72,30.65,30.20,7,2,11,0.00
2013-4-24,71.1,54.3,42.3,51.9,44.5,37.9,86,71,48,30.20,29.78,11,2,14,0.05
2013-4-25,66.4,56.6,42.3,48.2,34.1,22.9,86,47,21,30.30,29.77,13,3,22,0.06
2013-4-26,60.1,49.1,31.1,36.9,32.5,25.4,84,56,34,30.45,30.31,9,2,14,0.00
2013-4-27,63.7,47.1,32.7,40.2,35.2,28.7,89,66,34,30.43,30.32,7,1,11,0.00
2013-4-28,68.2,53.9,32.4,41.5,34.3,27.2,89,52,23,30.35,30.26,10,2,14,0.00
2013-4-29,68.4,56.3,34.9,46.5,40.2,29.1,84,57,38,30.28,30.21,8,2,13,0.00
2013-4-30,70.9,55.4,34.0,45.9,34.3,26.3,89,51,20,30.41,30.26,8,2,12,0.00
2013-5-1,72.7,57.5,31.1,38.0,31.7,23.3,85,43,17,30.49,30.40,8,1,11,0.00
2013-5-2,72.9,52.6,36.0,47.0,38.1,29.8,85,60,32,30.54,30.42,8,2,16,0.00
2013-5-3,65.5,50.1,32.4,45.7,38.9,28.4,90,67,48,30.58,30.41,6,1,8,0.00
2013-5-4,65.3,52.5,35.8,44.7,39.0,30.2,90,62,46,30.41,30.32,10,2,14,0.00
2013-5-5,64.6,54.8,36.5,44.6,39.5,31.2,88,58,38,30.36,29.92,13,4,13,0.00
2013-5-6,68.4,52.0,30.9,47.9,41.4,27.2,90,69,44,30.33,30.22,12,4,12,0.00
2013-5-7,77.5,62.1,44.2,55.1,49.8,42.1,92,67,39,30.22,30.15,13,3,13,0.00
2013-5-8,76.3,63.6,45.0,60.2,53.7,41.9,90,71,54,30.29,30.20,17,4,17,0.00
2013-5-9,64.8,57.4,53.8,57.4,53.2,49.8,91,86,76,30.17,29.95,6,1,13,0.56
2013-5-10,78.3,62.6,52.7,59.8,55.2,50.3,93,78,51,30.03,29.94,3,1,8,0.13
2013-5-11,68.4,60.8,52.2,60.7,56.1,49.3,91,85,74,29.99,29.73,2,0,8,0.37
2013-5-12,71.4,61.1,45.0,59.2,51.2,35.7,90,72,39,29.81,29.59,6,1,17,0.11
2013-5-13,55.4,49.5,38.3,35.9,31.5,28.6,78,52,40,29.95,29.80,8,4,24,0.00
2013-5-14,55.0,55.0,55.0,31.2,31.2,31.2,40,40,40,29.95,29.95,5,5,12,0.00
2013-5-15,55.0,55.0,55.0,31.2,31.2,31.2,40,40,40,29.95,29.95,5,5,12,0.00
2013-5-16,80.1,68.5,55.0,50.3,39.2,31.2,56,36,22,29.95,29.63,9,3,20,0.15
2013-5-17,69.4,60.0,0.0,43.5,41.0,36.6,80,49,33,30.27,29.87,6,2,27,0.00
2013-5-18,68.2,54.6,39.9,47.9,43.1,36.4,88,67,44,30.39,30.26,4,2,17,0.00
2013-5-19,63.9,54.4,48.0,50.8,47.1,43.7,89,77,61,30.42,30.29,3,1,9,0.12
2013-5-20,76.6,63.0,50.7,63.2,56.2,47.5,91,80,58,30.27,29.98,2,0,7,0.17
2013-5-21,57.2,52.6,49.8,53.4,48.1,45.7,89,84,81,30.11,30.01,3,1,9,0.17
2013-5-22,58.6,52.6,49.8,52.2,48.7,46.6,92,87,78,30.04,29.95,2,0,5,0.30
2013-5-23,66.9,60.9,49.5,60.8,56.2,46.9,92,85,75,29.99,29.85,2,0,6,0.09
2013-5-24,71.6,61.9,50.5,65.0,57.4,46.5,89,85,77,29.91,29.69,5,1,18,0.90
2013-5-25,52.9,48.9,46.0,47.7,45.1,43.0,91,87,79,29.91,29.38,7,4,21,0.73
2013-5-26,58.1,50.8,41.9,43.9,41.0,36.9,91,70,54,30.05,29.65,6,3,17,0.04
2013-5-27,71.4,60.7,38.3,43.1,37.9,31.1,87,46,23,30.22,30.04,6,2,17,0.01
2013-5-28,75.2,60.1,38.1,47.5,39.4,31.5,91,52,23,30.28,30.22,4,2,13,0.00
2013-5-29,60.4,55.8,46.2,55.3,51.8,41.6,89,87,81,30.25,30.05,2,0,6,0.17
2013-5-30,89.2,75.5,55.6,64.4,60.2,52.7,91,62,37,30.11,30.01,5,2,21,0.00
2013-5-31,94.6,82.5,59.4,68.6,64.2,55.5,87,56,40,30.12,30.00,5,2,15,0.00
2013-6-1,97.3,83.7,63.0,69.3,64.2,57.4,82,54,33,30.03,29.92,4,1,12,0.00
2013-6-2,91.0,80.4,66.6,69.8,65.3,61.1,86,62,46,29.93,29.75,6,2,17,0.15
2013-6-3,81.1,69.0,55.9,66.7,62.0,52.0,90,79,57,29.87,29.77,3,1,10,0.34
2013-6-4,68.5,60.7,48.4,51.6,45.7,41.5,90,60,40,30.11,29.85,6,2,20,0.01
2013-6-5,74.1,64.0,46.9,51.5,46.0,35.4,85,54,31,30.22,30.12,4,1,10,0.00
2013-6-6,71.4,63.3,52.5,53.1,48.0,40.3,85,60,35,30.26,30.21,4,1,12,0.00
2013-6-7,60.3,55.3,51.6,52.2,49.5,45.5,90,81,60,30.21,29.99,2,1,8,0.47
2013-6-8,74.1,63.1,53.1,61.1,55.8,50.2,91,78,58,30.04,29.70,5,2,14,0.40
2013-6-9,80.6,69.0,54.7,60.8,55.3,51.2,89,64,40,30.23,30.03,4,1,11,0.00
2013-6-10,69.6,63.9,50.7,56.5,53.8,47.3,89,70,57,30.26,30.11,2,1,7,0.00
2013-6-11,60.1,56.5,54.7,54.9,52.6,51.5,89,87,81,30.11,29.60,4,1,14,0.74
2013-6-12,63.5,60.2,55.6,55.5,53.0,50.8,89,77,69,29.83,29.57,4,2,16,0.08
2013-6-13,72.5,62.5,49.8,55.3,52.2,45.7,88,70,49,29.85,29.78,3,1,9,0.00
2013-6-14,81.3,65.2,55.2,56.5,53.2,49.0,88,69,34,29.80,29.72,3,1,10,0.00
2013-6-15,80.4,69.6,50.0,52.0,46.1,40.2,86,46,25,29.97,29.81,5,2,14,0.00
2013-6-16,77.7,67.8,48.7,57.7,54.8,44.4,85,65,44,29.98,29.77,4,1,8,0.00
2013-6-17,86.0,67.3,56.7,61.0,57.2,52.8,88,72,39,29.94,29.79,8,1,12,0.02
2013-6-18,69.1,61.2,56.3,58.3,55.2,52.5,89,81,62,30.05,29.92,3,0,8,0.24
2013-6-19,78.3,63.2,50.9,53.8,50.2,45.3,92,67,33,30.21,29.98,4,1,8,0.00
2013-6-20,79.0,67.2,47.1,55.4,50.1,43.8,90,57,33,30.31,30.22,4,1,10,0.00
2013-6-21,85.1,70.5,51.3,60.9,55.2,47.5,88,62,35,30.29,30.25,3,1,11,0.00
2013-6-22,86.9,74.2,58.5,66.6,62.3,54.6,87,68,47,30.28,30.18,3,1,8,0.00
2013-6-23,86.7,71.8,65.7,70.5,65.0,62.0,88,80,57,30.21,29.71,4,1,14,1.12
2013-6-24,94.5,84.1,67.1,70.2,67.3,62.3,89,59,44,30.06,29.95,4,2,10,0.01
2013-6-25,93.0,83.2,67.1,70.7,67.5,61.1,83,60,46,29.99,29.70,4,1,11,0.00
2013-6-26,80.1,70.0,59.0,68.5,62.3,55.1,87,77,62,29.85,29.66,4,1,11,0.11
2013-6-27,69.6,61.7,55.8,60.0,56.4,52.6,90,83,70,29.84,29.76,2,0,7,0.19
2013-6-28,67.3,63.2,57.6,63.6,59.8,54.3,90,89,87,29.80,29.46,4,1,7,0.81
2013-6-29,83.3,73.9,64.8,71.9,65.7,-2.7,91,76,61,29.65,29.47,3,1,14,0.01
2013-6-30,87.3,78.1,63.3,69.5,66.1,13.8,89,68,10,29.89,29.64,4,1,13,0.00
2013-7-1,80.4,73.5,66.4,69.5,66.9,62.4,88,80,65,30.05,29.89,3,0,5,0.15
2013-7-2,68.4,62.8,59.9,64.6,58.8,56.0,90,87,85,30.18,30.03,4,1,9,0.11
2013-7-3,84.0,72.0,59.9,69.7,63.7,56.6,90,76,60,30.18,30.05,3,1,7,0.08
2013-7-4,93.6,83.5,63.1,74.0,69.8,59.5,89,65,48,30.11,29.91,3,1,8,0.00
2013-7-5,95.4,85.5,70.9,73.7,70.0,65.5,86,61,46,30.07,29.95,4,1,13,0.00
2013-7-6,90.7,82.6,68.7,70.3,67.4,59.7,81,61,48,29.99,29.88,3,1,10,0.00
2013-7-7,89.1,78.2,66.2,69.8,65.9,59.4,84,67,48,29.93,29.65,3,0,9,0.00
2013-7-8,76.3,70.4,64.0,69.1,62.3,57.8,87,76,59,30.05,29.88,4,0,8,0.32
2013-7-9,77.0,67.2,63.3,64.6,61.0,58.2,89,81,64,30.08,29.86,3,0,5,0.08
2013-7-10,66.9,65.5,61.3,63.4,60.8,57.1,89,85,77,30.05,29.74,2,0,8,0.17
2013-7-11,85.5,75.0,66.6,73.0,67.7,63.2,90,79,52,29.93,29.70,2,0,5,0.07
2013-7-12,84.9,70.5,60.8,63.2,58.6,54.6,86,68,45,30.20,29.93,3,1,11,0.00
2013-7-13,83.8,70.4,57.6,64.3,59.1,53.7,88,69,46,30.29,30.20,3,0,7,0.00
2013-7-14,91.6,77.5,62.6,70.9,65.3,57.7,87,68,47,30.26,30.16,3,1,8,0.00
2013-7-15,85.3,80.2,66.4,69.7,67.8,62.1,86,67,58,30.15,30.02,2,0,5,0.00
2013-7-16,94.6,82.9,68.2,72.1,67.7,62.3,83,62,44,30.12,30.04,3,1,9,0.00
2013-7-17,94.5,81.4,66.9,73.4,68.4,62.6,86,66,47,30.12,29.89,5,1,11,0.18
2013-7-18,91.0,79.7,69.1,71.6,67.1,64.4,86,67,49,29.96,29.87,3,1,9,0.01
2013-7-19,95.7,84.7,69.1,73.8,70.2,64.4,87,63,46,29.89,29.38,5,1,18,0.00
2013-7-20,90.9,80.4,68.5,69.8,66.1,62.8,83,63,44,29.73,29.36,4,1,12,0.00
2013-7-21,79.9,72.4,60.6,63.2,58.7,54.1,85,64,45,29.98,29.74,3,1,10,0.00
2013-7-22,77.4,69.1,62.2,62.9,60.5,56.7,87,75,59,30.00,26.88,2,0,6,0.00
2013-7-23,70.5,67.5,63.0,64.6,62.2,57.7,87,83,77,29.88,29.50,2,0,5,0.56
2013-7-24,85.5,73.2,60.1,68.8,61.2,47.9,90,67,54,29.95,29.53,4,1,11,0.01
2013-7-25,74.8,65.8,54.7,58.6,53.3,46.6,81,65,52,30.08,29.95,3,1,10,0.00
2013-7-26,73.8,67.8,62.2,61.8,59.8,56.0,85,76,66,30.05,29.86,4,2,14,0.17
2013-7-27,86.0,76.1,60.6,66.0,62.1,56.4,87,63,46,30.01,29.90,3,1,8,0.00
2013-7-28,69.4,67.9,59.7,63.4,62.4,55.8,87,82,80,30.01,29.97,1,0,4,0.05
2013-7-29,81.5,69.0,62.4,66.9,62.3,58.4,89,80,61,30.02,29.94,3,1,9,0.21
2013-7-30,82.8,72.2,59.4,64.7,58.6,53.6,89,65,39,30.06,29.98,4,1,13,0.00
2013-7-31,83.1,70.5,54.9,61.4,56.8,51.1,88,64,39,30.08,30.01,4,1,8,0.00
2013-8-1,81.5,73.9,54.9,64.3,61.1,51.1,88,65,52,30.01,29.85,4,2,12,0.00
2013-8-2,81.9,71.5,62.1,67.1,62.4,14.7,88,74,48,29.90,29.57,3,0,8,0.35
2013-8-3,81.5,68.6,57.2,62.5,57.3,53.7,89,69,43,30.08,29.49,5,1,13,0.01
2013-8-4,80.6,66.8,54.1,62.2,56.1,50.1,88,70,44,30.17,29.57,4,1,14,0.11
2013-8-5,76.8,66.7,51.6,53.4,49.6,43.4,88,56,40,30.26,30.00,4,2,15,0.00
2013-8-6,80.6,68.8,46.2,57.1,52.5,42.6,88,58,39,30.49,30.25,2,0,8,0.00
2013-8-7,80.4,68.1,48.9,61.5,55.5,45.5,88,66,48,30.53,30.19,3,1,11,0.00
2013-8-8,82.4,71.2,59.4,68.1,63.2,54.2,87,76,61,30.31,29.97,2,0,7,0.05
2013-8-9,74.7,70.0,67.5,69.5,65.3,62.8,87,85,79,30.03,29.78,4,1,11,0.63
2013-8-10,83.7,73.3,57.0,66.3,56.3,49.2,90,58,34,30.16,29.88,3,1,9,0.01
2013-8-11,80.1,69.5,49.5,61.1,53.9,45.9,88,60,40,30.45,30.06,1,0,4,0.00
2013-8-12,84.4,70.7,52.9,61.3,56.3,49.4,88,63,39,30.38,29.58,1,0,4,0.00
2013-8-13,74.7,65.4,0.0,61.8,59.0,53.0,88,77,62,30.11,29.57,2,0,4,0.00
2013-8-14,78.3,70.1,55.4,63.0,54.9,14.7,88,60,39,30.17,29.67,5,1,16,0.13
2013-8-15,78.3,68.0,51.8,55.0,52.3,46.7,85,59,42,30.50,30.01,2,0,7,0.00
2013-8-16,81.1,67.4,51.3,58.1,53.9,47.5,88,64,36,30.26,29.96,1,0,4,0.00
2013-8-17,81.7,68.6,52.7,60.7,55.0,49.3,89,64,42,30.48,30.18,1,0,2,0.00
2013-8-18,80.2,69.2,53.2,63.6,58.6,49.5,88,71,53,30.44,29.97,1,0,4,0.00
2013-8-19,86.2,72.2,54.9,64.3,59.3,51.4,88,66,45,30.10,29.65,1,0,2,0.00
2013-8-20,87.3,75.6,59.9,65.0,61.4,55.6,86,63,45,30.20,29.77,0,0,2,0.00
2013-8-21,90.5,78.1,59.5,66.3,62.6,55.5,87,62,42,30.30,29.78,0,0,4,0.00
2013-8-22,90.3,79.2,62.8,66.2,63.3,57.2,84,60,40,30.38,29.70,1,0,5,0.12
2013-8-23,80.8,73.2,60.8,63.4,52.7,48.6,77,50,33,30.29,29.92,4,1,14,0.00
2013-8-24,81.9,68.3,49.5,55.7,50.2,45.4,86,56,30,30.63,30.16,1,0,4,0.00
2013-8-25,81.3,69.4,33.8,57.7,50.9,13.8,79,53,33,30.37,28.73,12,1,12,0.61
2013-8-26,81.0,71.0,61.3,65.4,62.0,56.2,87,74,56,30.36,29.90,4,0,6,0.27
2013-8-27,87.4,74.5,63.3,67.7,62.9,59.1,88,69,48,30.01,29.77,0,0,2,0.00
2013-8-28,84.6,73.5,60.3,66.7,62.7,56.4,88,70,52,30.08,29.81,2,0,4,0.13
2013-8-29,68.4,65.9,61.9,61.5,58.4,56.3,87,77,71,30.32,30.19,2,0,4,0.01
2013-8-30,86.2,72.2,61.2,67.3,61.6,56.1,85,71,51,30.28,29.77,1,0,2,0.00
2013-8-31,85.1,75.5,66.7,67.8,65.9,62.3,87,73,53,30.03,29.70,1,0,2,0.04
2013-9-1,85.5,75.8,68.0,71.5,66.2,63.4,88,73,56,30.15,29.85,4,0,7,0.01
2013-9-2,70.2,67.8,63.9,65.8,63.8,60.3,89,87,84,30.22,29.82,4,0,7,1.71
2013-9-3,81.7,72.0,63.1,68.3,64.4,57.9,90,77,61,29.85,29.65,4,0,5,0.01
2013-9-4,82.4,70.2,57.0,60.5,56.3,53.6,89,64,40,30.07,29.79,8,1,12,0.00
2013-9-5,71.6,60.4,49.5,56.8,50.1,43.4,86,71,39,30.55,30.01,7,1,9,0.20
2013-9-6,71.4,59.8,41.9,49.0,44.3,38.4,90,59,34,30.70,30.40,4,0,4,0.00
2013-9-7,78.6,65.8,46.6,56.6,52.1,42.9,88,63,41,30.48,29.68,4,0,6,0.00
2013-9-8,68.9,60.9,45.5,57.4,46.6,39.5,85,61,43,30.24,29.55,11,2,20,0.05
2013-9-9,72.0,57.3,0.0,52.1,44.9,35.4,88,65,40,30.52,30.09,6,0,8,0.00
2013-9-10,68.2,63.0,49.8,62.8,57.3,45.8,87,82,70,30.17,29.91,4,0,10,0.15
2013-9-11,94.3,81.8,62.6,72.5,68.7,58.7,89,66,47,30.38,29.60,8,1,16,0.50
2013-9-12,82.2,71.5,65.7,71.7,65.7,62.0,88,82,62,30.39,29.42,9,0,14,1.39
2013-9-13,73.4,65.2,58.1,65.8,60.4,53.6,89,84,71,29.71,29.47,5,0,12,0.75
2013-9-14,72.7,61.7,51.4,57.0,53.3,46.5,90,75,54,30.11,29.72,1,0,3,0.01
2013-9-15,72.7,59.4,43.9,53.1,48.7,40.9,90,70,42,30.39,30.12,1,0,2,0.00
2013-9-16,67.3,57.3,46.4,55.1,47.7,35.7,86,71,52,30.49,30.13,8,1,15,0.02
2013-9-17,67.6,55.4,39.0,48.7,41.9,34.8,85,63,41,30.74,30.18,2,0,2,0.00
2013-9-18,75.6,57.5,39.9,53.4,46.1,37.2,90,69,39,30.32,29.92,1,0,3,0.01
2013-9-19,79.3,60.8,42.6,56.9,50.3,40.2,91,71,43,30.12,29.75,2,0,2,0.00
2013-9-20,78.4,64.5,45.7,57.9,52.0,42.9,90,67,43,30.06,29.73,2,0,3,0.00
2013-9-21,70.7,64.8,55.0,60.9,57.3,51.1,91,77,64,29.86,29.54,4,1,8,0.00
2013-9-22,73.4,64.2,48.7,61.5,53.2,42.2,86,68,48,29.58,29.33,6,1,10,0.33
2013-9-23,61.5,53.4,43.0,43.9,41.0,37.5,84,64,50,29.97,29.60,6,0,8,0.00
2013-9-24,60.6,50.6,37.4,44.2,40.8,33.9,88,70,49,29.97,29.82,4,0,11,0.00
2013-9-25,64.2,56.0,41.4,48.0,45.4,37.2,86,68,54,29.97,29.84,2,0,3,0.00
2013-9-26,69.6,57.7,44.4,52.1,47.0,40.1,86,69,52,30.03,29.94,2,0,4,0.00
2013-9-27,73.9,61.3,50.4,55.4,50.7,45.7,84,69,50,30.11,29.98,2,0,3,0.00
2013-9-28,76.5,60.2,48.0,55.4,49.2,44.1,88,70,37,30.22,30.05,2,0,3,0.00
2013-9-29,69.4,48.1,43.0,53.8,43.0,40.0,91,84,46,30.19,30.01,2,0,2,0.00
2013-9-30,68.9,55.3,40.8,54.2,47.7,37.8,91,77,56,30.14,29.85,2,0,3,0.00
2013-10-1,46.2,44.9,44.1,42.9,41.2,40.7,88,87,86,29.90,29.87,1,0,2,0.00
2013-10-4,72.2,60.4,52.8,56.2,52.7,50.0,94,77,46,30.03,29.97,1,0,3,0.01
2013-10-5,63.2,57.6,50.6,53.3,48.4,44.2,93,72,53,30.10,30.02,4,0,4,0.00
2013-10-6,53.5,51.2,49.6,50.5,45.3,38.0,97,81,64,30.24,30.09,8,1,8,0.09
2013-10-7,68.0,60.2,51.2,66.2,59.3,50.4,99,97,92,30.15,29.74,4,1,13,0.78
2013-10-8,63.8,53.1,39.3,57.7,43.3,37.6,95,72,42,30.35,29.80,6,1,12,0.00
2013-10-9,64.7,48.8,33.5,47.4,40.5,32.5,98,76,42,30.45,30.33,2,1,7,0.00
2013-10-10,67.6,48.0,34.5,50.9,42.2,33.5,98,84,38,30.33,30.15,2,0,6,0.00
2013-10-11,68.5,55.3,43.4,54.1,49.1,42.6,98,82,51,30.15,30.08,2,0,7,0.00
2013-10-12,57.5,51.9,45.4,52.6,49.1,44.1,98,90,81,30.39,30.13,2,0,9,0.00
2013-10-13,57.7,50.8,42.5,50.1,46.7,41.1,98,86,66,30.43,30.36,2,0,5,0.00
2013-10-14,66.0,53.7,35.2,50.2,46.6,34.4,98,79,50,30.35,30.19,6,1,9,0.00
2013-10-15,64.5,57.5,50.3,53.7,52.0,48.6,96,83,65,30.24,30.16,3,1,7,0.00
2013-10-16,61.2,56.2,52.1,54.8,52.9,49.3,97,89,73,30.16,29.87,2,1,8,0.00
2013-10-17,73.0,59.4,49.0,56.9,51.2,47.2,97,77,43,29.86,29.66,5,1,14,0.00
2013-10-18,66.9,57.4,46.6,56.0,49.4,43.0,98,77,49,29.80,29.54,6,2,15,0.53
2013-10-19,65.8,54.2,41.2,49.3,45.0,37.8,95,73,42,29.89,29.71,4,1,11,0.00
2013-10-20,62.2,52.5,41.7,50.5,39.0,31.0,98,64,33,29.92,29.62,6,2,19,0.00
2013-10-21,63.7,50.1,36.4,46.1,40.7,34.3,95,73,42,30.05,29.92,5,1,12,0.00
2013-10-22,60.8,50.4,39.2,53.9,47.2,38.2,98,89,65,29.93,29.66,4,1,12,0.06
2013-10-23,53.4,45.7,33.3,42.4,37.6,32.5,98,75,47,29.73,29.54,3,0,7,0.00
2013-10-24,51.6,44.7,33.6,38.7,31.5,27.8,92,61,42,29.79,29.57,8,2,18,0.00
2013-10-25,47.7,39.1,28.9,35.1,29.4,25.1,96,71,45,30.06,29.79,4,1,14,0.00
2013-10-26,50.7,40.5,26.0,36.3,30.6,24.3,95,70,46,30.07,29.82,4,1,12,0.00
2013-10-27,55.4,45.4,32.5,39.9,34.8,28.3,89,68,43,29.98,29.74,6,2,16,0.01
2013-10-28,56.0,42.7,29.7,37.1,30.0,23.8,91,62,44,30.31,29.97,6,2,19,0.00
2013-10-29,48.7,35.5,23.5,28.7,23.9,20.1,92,66,34,30.42,30.31,3,1,8,0.00
2013-10-30,51.0,37.5,25.0,31.6,28.3,22.5,92,72,44,30.32,30.13,4,1,12,0.00
2013-10-31,58.7,41.9,26.5,58.0,40.1,24.8,98,93,84,30.20,29.73,3,0,9,0.28
2013-11-1,68.5,62.0,54.5,62.2,56.5,44.2,98,83,66,29.71,29.31,6,2,19,0.16
2013-11-2,64.6,54.6,40.7,48.0,44.1,39.0,96,70,43,29.70,29.53,5,1,13,0.12
2013-11-3,48.2,38.7,31.9,46.6,24.3,18.4,94,57,39,30.38,29.70,4,2,14,0.00
2013-11-4,42.2,32.0,22.8,21.7,19.3,16.0,89,62,37,30.67,30.39,4,1,12,0.00
2013-11-5,48.8,35.2,21.0,32.6,28.0,19.2,95,77,46,30.68,30.46,3,1,9,0.00
2013-11-6,57.2,46.4,30.2,45.2,40.9,28.9,96,82,60,30.46,29.94,3,1,10,0.00
2013-11-7,58.6,51.4,41.8,56.7,46.7,28.5,95,84,59,29.94,29.58,3,1,13,0.03
2013-11-8,45.8,38.7,28.6,30.0,25.7,22.1,87,60,45,29.97,29.73,5,2,15,0.01
2013-11-9,44.3,36.6,26.4,28.9,23.5,20.8,83,61,40,30.09,29.97,6,1,13,0.00
2013-11-10,43.3,38.9,33.0,40.8,36.5,28.0,96,91,77,30.02,29.67,3,0,10,0.04
2013-11-11,46.2,39.5,32.8,36.0,29.6,25.6,87,69,46,29.99,29.71,6,1,15,0.00
2013-11-12,40.4,31.8,24.0,33.7,19.7,14.6,87,61,51,30.08,29.79,5,2,17,0.00
2013-11-13,36.1,27.1,18.1,16.9,13.7,9.2,86,59,38,30.21,30.05,4,1,12,0.00
2013-11-14,49.2,36.1,26.0,29.0,24.0,13.2,91,63,44,30.05,29.94,5,1,12,0.00
2013-11-15,54.1,39.4,24.7,29.9,24.6,21.0,93,60,29,30.12,30.03,3,1,7,0.00
2013-11-16,58.1,39.6,28.0,34.6,29.7,25.2,94,71,33,30.30,30.13,2,0,4,0.00
2013-11-17,51.9,44.5,28.1,51.4,42.9,26.5,98,94,84,30.30,29.86,2,0,8,0.15
2013-11-18,62.1,53.8,43.6,58.3,46.9,35.1,99,79,48,29.85,29.43,8,2,18,0.39
2013-11-19,44.9,35.3,27.0,35.2,19.8,16.3,77,53,41,30.19,29.54,7,3,18,0.00
2013-11-20,40.4,30.9,20.8,17.5,15.0,11.1,86,54,31,30.59,30.19,5,2,26,0.00
2013-11-21,48.4,32.6,17.7,22.5,16.9,9.8,91,58,22,30.59,30.31,4,0,8,0.00
2013-11-22,38.4,34.8,26.7,36.2,31.8,20.5,96,89,76,30.29,29.74,1,0,3,0.03
2013-11-23,42.4,34.7,25.2,36.9,21.5,14.0,96,61,34,29.81,29.66,7,2,20,0.00
2013-11-24,27.6,22.1,19.1,20.5,4.7,1.3,76,47,39,30.02,29.66,8,5,26,0.00
2013-11-25,29.9,24.6,17.5,11.5,1.6,-3.1,56,37,25,30.27,30.01,5,2,15,0.00
2013-11-26,34.6,30.7,26.2,31.2,25.9,11.5,96,83,50,30.27,30.11,2,0,7,0.05
2013-11-27,58.6,49.0,32.3,58.0,48.3,31.3,98,97,92,30.10,29.12,6,2,20,2.79
2013-11-28,39.1,27.0,16.9,38.3,14.1,6.4,97,60,37,30.35,29.26,8,3,22,0.01
2013-11-29,28.9,21.3,13.7,12.9,9.8,5.7,90,63,40,30.71,30.35,3,1,12,0.00
2013-11-30,29.6,22.8,9.8,21.1,14.5,7.2,91,72,43,30.78,30.39,2,1,8,0.00
2013-12-1,33.9,32.4,29.0,33.0,30.7,20.3,97,94,69,30.39,30.02,2,0,6,0.36
2013-12-2,36.2,34.7,33.0,35.4,34.0,32.2,98,97,96,30.01,29.88,2,1,10,0.02
2013-12-3,44.7,36.6,28.6,39.5,34.8,27.4,99,93,81,29.89,29.81,3,0,9,0.00
2013-12-4,40.1,31.6,24.9,30.7,26.9,23.4,97,84,62,30.17,29.86,3,1,8,0.00
2013-12-5,35.6,32.4,24.0,35.0,31.2,22.8,98,95,89,30.22,29.87,2,0,4,0.05
2013-12-6,44.9,39.7,34.3,44.4,39.1,33.0,99,98,94,30.08,29.80,1,0,4,0.12
2013-12-7,38.4,31.9,24.3,33.3,21.6,10.6,98,68,45,30.38,30.03,6,2,15,0.07
2013-12-8,29.3,25.5,19.4,18.7,12.8,8.9,77,59,43,30.53,30.37,4,1,16,0.00
2013-12-9,26.6,25.1,22.9,25.2,20.9,11.5,95,85,55,30.49,29.80,2,1,8,0.01
2013-12-10,33.5,28.2,16.1,31.7,26.2,13.7,97,92,83,29.87,29.69,3,0,8,0.00
2013-12-11,30.1,20.8,11.2,21.2,14.6,8.9,92,78,53,30.10,29.87,6,1,13,0.00
2013-12-12,20.9,13.7,5.9,17.3,1.6,-3.9,86,60,35,30.21,29.97,5,1,17,0.00
2013-12-13,26.2,16.0,4.8,12.2,3.9,-4.0,87,60,40,30.32,29.88,7,2,19,0.00
2013-12-14,13.9,9.3,-0.7,7.3,-3.3,-9.6,87,58,37,30.59,30.34,3,1,9,0.00
2013-12-15,19.4,15.1,10.0,17.2,12.7,7.2,92,90,88,30.31,29.40,5,2,18,0.00
2013-12-16,24.4,15.6,0.3,19.7,10.4,-3.4,94,80,69,30.16,29.63,7,2,16,0.00
2013-12-17,60.0,6.7,-12.0,9.3,2.2,-15.9,90,82,65,30.27,29.92,10,1,18,3.29
2013-12-18,32.6,22.7,11.8,26.3,18.7,9.2,93,85,71,29.99,29.81,3,1,11,0.00
2013-12-19,33.2,27.1,14.8,28.7,23.3,12.6,94,86,77,30.04,29.88,2,0,7,0.00
2013-12-20,38.7,31.7,23.2,33.1,29.2,20.7,97,91,79,30.08,29.86,1,0,3,0.01
2013-12-21,39.8,35.2,31.7,37.7,34.3,30.9,98,97,91,29.90,29.79,1,0,4,0.24
2013-12-22,34.7,29.5,26.6,34.2,28.6,25.5,98,96,95,30.05,29.83,3,1,9,0.44
2013-12-23,32.5,30.8,26.5,32.2,30.2,25.5,99,97,96,30.08,29.93,2,0,8,0.01
2013-12-24,32.4,24.9,14.0,32.2,23.4,11.9,99,94,89,30.15,30.02,2,0,4,0.00
2013-12-25,20.1,11.8,3.8,15.3,8.7,1.2,92,87,79,30.51,30.15,2,0,8,0.00
2013-12-26,23.4,16.7,9.8,21.9,14.9,7.7,94,93,91,30.48,30.04,2,0,4,0.00
2013-12-27,32.5,19.4,6.6,27.6,17.4,4.5,96,92,81,30.17,30.10,5,0,15,0.00
2013-12-28,35.5,27.1,10.5,32.3,25.3,8.6,97,93,86,30.13,29.90,2,0,9,0.01
2013-12-29,33.9,28.5,19.5,32.7,27.6,18.1,98,96,93,29.97,29.49,2,0,4,0.06
2013-12-30,33.0,22.3,3.0,31.8,19.9,0.5,98,90,77,30.14,29.48,4,0,11,0.07
2013-12-31,13.2,4.3,-3.8,8.7,1.0,-6.7,91,86,76,30.14,30.00,2,0,6,0.00
2014-1-1,21.1,9.6,-2.6,12.5,5.1,-5.3,94,82,61,30.36,30.09,6,1,15,0.00
2014-1-2,8.5,-1.4,-5.3,5.5,-5.1,-8.9,91,84,79,30.39,29.96,4,2,14,0.00